• Em Portugal
  • Lista de países
  • Para 7 dias
  • Temperatura da água
  • Mapas de satélite
  • Mapa do tempo
  • Widgets de tempo
  • user-avatar
    Iniciar Sessão

    Previsão horária em Kobyle

    Hoje, 26 Setembro, Quarta-feira

    Tempo Temperatura Precipitação Vento Pressão Humidade
    00:00 +4°C° 0 mm 2 m/s 756 mmHg 78%
    01:00 +3°C° 0 mm 2 m/s 756 mmHg 83%
    02:00 +3°C° 0 mm 2 m/s 756 mmHg 85%
    03:00 +2°C° 0 mm 2 m/s 756 mmHg 86%
    04:00 +2°C° 0 mm 2 m/s 756 mmHg 88%
    05:00 +3°C° 0 mm 2 m/s 756 mmHg 84%
    06:00 +4°C° 0 mm 2 m/s 756 mmHg 81%
    07:00 +5°C° 0 mm 2 m/s 756 mmHg 78%
    08:00 +7°C° 0 mm 2 m/s 756 mmHg 69%
    09:00 +9°C° 0 mm 2 m/s 756 mmHg 60%
    10:00 +11°C° 0 mm 3 m/s 756 mmHg 51%
    11:00 +13°C° 0 mm 2 m/s 755 mmHg 47%
    12:00 +14°C° 0 mm 2 m/s 755 mmHg 43%
    13:00 +15°C° 0 mm 2 m/s 754 mmHg 39%
    14:00 +15°C° 0 mm 2 m/s 754 mmHg 43%
    15:00 +14°C° 0 mm 2 m/s 753 mmHg 46%
    16:00 +14°C° 0 mm 2 m/s 753 mmHg 49%
    17:00 +13°C° 0 mm 2 m/s 753 mmHg 49%
    18:00 +12°C° 0 mm 2 m/s 753 mmHg 50%
    19:00 +10°C° 0 mm 2 m/s 753 mmHg 51%
    20:00 +10°C° 0 mm 2 m/s 752 mmHg 52%
    21:00 +10°C° 0 mm 3 m/s 752 mmHg 53%
    22:00 +10°C° 0 mm 3 m/s 752 mmHg 55%
    23:00 +10°C° 0 mm 3 m/s 752 mmHg 54%

    Amanhã, 27 Setembro, Quinta-feira

    Tempo Temperatura Precipitação Vento Pressão Humidade
    00:00 +10°C° 0 mm 4 m/s 751 mmHg 53%
    01:00 +10°C° 0 mm 4 m/s 751 mmHg 52%
    02:00 +10°C° 0 mm 4 m/s 751 mmHg 52%
    03:00 +10°C° 0 mm 4 m/s 750 mmHg 52%
    04:00 +10°C° 0 mm 4 m/s 750 mmHg 52%
    05:00 +10°C° 0 mm 4 m/s 750 mmHg 53%
    06:00 +10°C° 0 mm 4 m/s 750 mmHg 53%
    07:00 +10°C° 0 mm 4 m/s 750 mmHg 53%
    08:00 +11°C° 0 mm 4 m/s 750 mmHg 54%
    09:00 +12°C° 0 mm 4 m/s 750 mmHg 55%
    10:00 +12°C° 0 mm 4 m/s 750 mmHg 56%
    11:00 +14°C° 0 mm 5 m/s 750 mmHg 55%
    12:00 +15°C° 0 mm 5 m/s 750 mmHg 55%
    13:00 +17°C° 0 mm 5 m/s 749 mmHg 54%
    14:00 +18°C° 0 mm 4 m/s 749 mmHg 56%
    15:00 +18°C° 0 mm 4 m/s 749 mmHg 59%
    16:00 +17°C° 0 mm 3 m/s 748 mmHg 61%
    17:00 +16°C° 0 mm 3 m/s 748 mmHg 64%
    18:00 +13°C° 0 mm 3 m/s 748 mmHg 67%
    19:00 +11°C° 0 mm 3 m/s 748 mmHg 70%
    20:00 +11°C° 0 mm 3 m/s 748 mmHg 70%
    21:00 +11°C° 0 mm 3 m/s 748 mmHg 69%
    22:00 +10°C° 0 mm 3 m/s 747 mmHg 69%
    23:00 +10°C° 0 mm 3 m/s 747 mmHg 69%

    Depois de amanhã, 28 Setembro, Sexta-feira

    Tempo Temperatura Precipitação Vento Pressão Humidade
    00:00 +10°C° 0 mm 3 m/s 746 mmHg 69%
    01:00 +10°C° 0 mm 3 m/s 746 mmHg 69%
    02:00 +10°C° 0 mm 3 m/s 745 mmHg 68%
    03:00 +10°C° 0 mm 3 m/s 745 mmHg 68%
    04:00 +10°C° 0 mm 3 m/s 744 mmHg 68%
    05:00 +10°C° 0 mm 4 m/s 744 mmHg 67%
    06:00 +10°C° 0 mm 4 m/s 744 mmHg 66%
    07:00 +11°C° 0 mm 4 m/s 743 mmHg 65%
    08:00 +13°C° 0 mm 4 m/s 743 mmHg 61%
    09:00 +15°C° 0 mm 4 m/s 743 mmHg 57%
    10:00 +18°C° 0 mm 4 m/s 743 mmHg 53%
    11:00 +19°C° 0 mm 4 m/s 743 mmHg 50%
    12:00 +20°C° 0 mm 4 m/s 742 mmHg 48%
    13:00 +21°C° 0 mm 4 m/s 742 mmHg 46%
    14:00 +20°C° 0 mm 4 m/s 742 mmHg 49%
    15:00 +20°C° 0 mm 3 m/s 742 mmHg 52%
    16:00 +19°C° 0 mm 3 m/s 741 mmHg 56%
    17:00 +17°C° 0 mm 2 m/s 742 mmHg 61%
    18:00 +16°C° 0 mm 2 m/s 742 mmHg 66%
    19:00 +14°C° 0 mm 2 m/s 742 mmHg 72%
    20:00 +13°C° 0 mm 2 m/s 742 mmHg 77%
    21:00 +13°C° 0 mm 2 m/s 743 mmHg 82%
    22:00 +13°C° 0 mm 1 m/s 743 mmHg 87%
    23:00 +12°C° 0.1 mm 2 m/s 743 mmHg 87%

    29 Setembro, Sábado

    Tempo Temperatura Precipitação Vento Pressão Humidade
    00:00 +12°C° 0.1 mm 2 m/s 743 mmHg 87%
    01:00 +12°C° 0.1 mm 2 m/s 743 mmHg 88%
    02:00 +12°C° 0.2 mm 2 m/s 743 mmHg 88%
    03:00 +10°C° 0.2 mm 2 m/s 743 mmHg 88%
    04:00 +10°C° 0.2 mm 2 m/s 743 mmHg 88%
    05:00 +9°C° 0.3 mm 3 m/s 744 mmHg 88%
    06:00 +9°C° 0.3 mm 3 m/s 744 mmHg 87%
    07:00 +9°C° 0.3 mm 3 m/s 744 mmHg 87%
    08:00 +10°C° 0.2 mm 3 m/s 745 mmHg 82%
    09:00 +11°C° 0.2 mm 4 m/s 745 mmHg 77%
    10:00 +10°C° 0.2 mm 5 m/s 746 mmHg 72%
    11:00 +12°C° 0.2 mm 5 m/s 746 mmHg 66%
    12:00 +12°C° 0.2 mm 5 m/s 746 mmHg 61%
    13:00 +13°C° 0.2 mm 6 m/s 746 mmHg 56%
    14:00 +12°C° 0 mm 5 m/s 746 mmHg 54%
    15:00 +12°C° 0 mm 5 m/s 747 mmHg 52%
    16:00 +12°C° 0 mm 4 m/s 747 mmHg 50%
    17:00 +11°C° 0 mm 4 m/s 747 mmHg 53%
    18:00 +9°C° 0 mm 3 m/s 748 mmHg 55%
    19:00 +8°C° 0 mm 3 m/s 748 mmHg 58%
    20:00 +7°C° 0 mm 2 m/s 749 mmHg 61%
    21:00 +7°C° 0 mm 2 m/s 749 mmHg 64%
    22:00 +6°C° 0 mm 2 m/s 749 mmHg 67%
    23:00 +5°C° 0 mm 2 m/s 749 mmHg 69%

    30 Setembro, Domingo

    Tempo Temperatura Precipitação Vento Pressão Humidade
    00:00 +5°C° 0 mm 2 m/s 749 mmHg 72%
    01:00 +5°C° 0 mm 1 m/s 750 mmHg 74%
    02:00 +5°C° 0 mm 1 m/s 749 mmHg 76%
    03:00 +5°C° 0 mm 1 m/s 749 mmHg 79%
    04:00 +4°C° 0 mm 1 m/s 749 mmHg 81%
    05:00 +5°C° 0 mm 1 m/s 749 mmHg 79%
    06:00 +6°C° 0 mm 1 m/s 749 mmHg 77%
    07:00 +6°C° 0 mm 1 m/s 749 mmHg 76%
    08:00 +7°C° 0 mm 2 m/s 749 mmHg 68%
    09:00 +9°C° 0 mm 3 m/s 749 mmHg 60%
    10:00 +11°C° 0 mm 3 m/s 749 mmHg 53%
    11:00 +12°C° 0 mm 4 m/s 748 mmHg 50%
    12:00 +13°C° 0 mm 4 m/s 748 mmHg 48%
    13:00 +13°C° 0 mm 4 m/s 747 mmHg 46%
    14:00 +13°C° 0 mm 3 m/s 747 mmHg 49%
    15:00 +13°C° 0 mm 3 m/s 746 mmHg 52%
    16:00 +12°C° 0 mm 3 m/s 746 mmHg 56%
    17:00 +10°C° 0 mm 3 m/s 746 mmHg 63%
    18:00 +9°C° 0 mm 2 m/s 745 mmHg 70%
    19:00 +7°C° 0 mm 2 m/s 745 mmHg 77%
    20:00 +6°C° 0 mm 2 m/s 745 mmHg 79%
    21:00 +6°C° 0 mm 2 m/s 745 mmHg 81%
    22:00 +6°C° 0 mm 2 m/s 744 mmHg 82%
    23:00 +6°C° 0 mm 2 m/s 744 mmHg 82%

    1 Outubro, Segunda-feira

    Tempo Temperatura Precipitação Vento Pressão Humidade
    00:00 +6°C° 0 mm 2 m/s 743 mmHg 82%
    01:00 +6°C° 0 mm 2 m/s 743 mmHg 81%
    02:00 +7°C° 0 mm 1 m/s 743 mmHg 81%
    03:00 +7°C° 0 mm 1 m/s 742 mmHg 80%
    04:00 +7°C° 0 mm 1 m/s 742 mmHg 79%
    05:00 +7°C° 0 mm 1 m/s 741 mmHg 77%
    06:00 +7°C° 0 mm 2 m/s 741 mmHg 75%
    07:00 +8°C° 0 mm 2 m/s 741 mmHg 72%
    08:00 +10°C° 0 mm 2 m/s 741 mmHg 66%
    09:00 +14°C° 0 mm 2 m/s 740 mmHg 60%
    10:00 +16°C° 0 mm 3 m/s 740 mmHg 54%
    11:00 +17°C° 0 mm 3 m/s 739 mmHg 53%
    12:00 +18°C° 0 mm 3 m/s 739 mmHg 51%
    13:00 +19°C° 0 mm 3 m/s 739 mmHg 49%
    14:00 +19°C° 0 mm 3 m/s 738 mmHg 53%
    15:00 +18°C° 0 mm 3 m/s 738 mmHg 57%
    16:00 +17°C° 0 mm 2 m/s 737 mmHg 62%
    17:00 +16°C° 0 mm 2 m/s 738 mmHg 66%
    18:00 +15°C° 0 mm 2 m/s 738 mmHg 70%
    19:00 +12°C° 0 mm 3 m/s 738 mmHg 74%
    20:00 +13°C° 0.1 mm 2 m/s 738 mmHg 77%
    21:00 +13°C° 0.1 mm 2 m/s 738 mmHg 80%
    22:00 +12°C° 0.1 mm 2 m/s 738 mmHg 84%
    23:00 +12°C° 0.3 mm 2 m/s 738 mmHg 86%
    Mostrar mais